[[{"header":{"parameterUnit":"m.s-1","parameterCategory":2,"la1":30.2991,"la2":30.254,"lo1":-89.0895,"lo2":-89.0444,"dy":0.0017,"dx":0.0017,"nx":28,"ny":28,"refTime":"2023-05-01T21:00:00:Z","depth":"0","parameterNumber":2,"parameterNumberName":"U-component_of_CURRENTS"},"data":[0,0,0,0,0,0,0,0,0,0,0,0,0,0,0,0,0,0,0,0,0,0,0,0,0,0,0,0,0,0,0,0,0,0,0,0,0,0,0,0,0,0,0,0,0,0,0,0,0,0,0,0,0,0,0,0,0,0,0.0402,0.0403,0,0.0442,0.0442,0.0441,0.0478,0.0479,0.0481,0.0482,0.0438,0.0435,0.0433,0,0,0,0,0,0,0,0,0,0,0,0,0,0.0399,0.0397,0.0402,0.0403,0.0405,0.0442,0.0442,0.0441,0.0478,0.0479,0.0481,0.0483,0.0438,0.0435,0.0432,0,0,0,0,0,0,0,0,0,0,0,0,0,0.0405,0.0397,0.0402,0.0435,0.044,0.0442,0.0442,0.0441,0.0477,0.0479,0.0482,0.0484,0.0439,0.0436,0.0432,0.0366,0,0,0.0421,0.0419,0,0,0,0,0,0,0,0,0.0405,0.0404,0.0429,0.0433,0.0438,0.0467,0.0425,0.0416,0.0477,0.0452,0.0482,0.0485,0.0445,0.0441,0.043,0.0364,0.0362,0.042,0.0418,0.0416,0.0415,0,0,0,0,0,0,0,0.0404,0.0403,0.0407,0.0431,0.0436,0.0464,0.0465,0.0423,0.0426,0.0454,0.0459,0.048,0.0445,0.0433,0.0429,0.0362,0.042,0.0417,0.0415,0.0413,0.0226,0.0224,0,0,0,0,0,0,0.0416,0.0402,0.0406,0.0409,0.0438,0.0463,0.0464,0.0446,0.0428,0.0432,0.0478,0.0482,0.0438,0.0433,0.0427,0.032,0.0416,0.0413,0.0411,0.0229,0.0226,0.0223,0,0,0,0,0,0,0.0415,0.0414,0.0404,0.0418,0.042,0.0461,0.0441,0.0446,0.0434,0.045,0.045,0.0462,0.044,0.0433,0.0373,0.032,0.0411,0.0408,0.0232,0.0228,0.0224,0.0123,0,0,0,0,0,0,0.0413,0.0412,0.0389,0.0417,0.042,0.0379,0.044,0.0446,0.0449,0.0453,0.0435,0.0434,0.0441,0.0379,0.037,0.0316,0.0405,0.0236,0.023,0.0226,0.013,0.0116,0.0104,0,0,0,0,0,0.0412,0.0366,0.0386,0.0388,0.039,0.0377,0.0377,0.041,0.0446,0.0411,0.041,0.0434,0.0341,0.0373,0.0363,0.0307,0.0238,0.0232,0.0226,0.0135,0.0119,0.0104,0,0,0,0,0,0,0.0332,0.0368,0.039,0.0351,0.0358,0.0387,0.0366,0.0396,0.0368,0.0371,0.0392,0.0387,0.0319,0.032,0.0356,0.0239,0.0295,0.0287,0.023,0.0214,0.0201,0.0196,0.0402,0,0,0,0,0,0.0311,0.0293,0.0326,0.029,0.0293,0.0327,0.0327,0.0346,0.0344,0.0335,0.0329,0.0313,0.0282,0.0257,0.0228,0.0151,0.0165,0.0111,0.0099,0.0088,0.0075,0.006,0.0045,0.0203,0.0203,0.0203,0,0,0.0266,0.029,0.0275,0.0275,0.0284,0.0256,0.0327,0.031,0.0279,0.0329,0.0262,0.0264,0.0253,0.0178,0.0147,0.0173,0.0044,0.008,0.0071,0.0064,0.0052,0.0037,0.0024,0.0199,0.0199,0.02,0,0,0.0186,0.019,0.0158,0.0155,0.0176,0.019,0.0183,0.0196,0.0189,0.0133,0.0168,0.0135,0.008,0.0064,0.0051,-0.0057,-0.0018,-0.0063,-0.0142,-0.0158,-0.0171,-0.0181,-0.0202,-0.0214,-0.0075,-0.0075,-0.0075,0,0.0132,0.01,0.014,0.011,0.01,0.0156,0.0105,0.0096,0.0084,0.0067,0.0094,0.003,0.0022,-0.0052,-0.0083,-0.0088,-0.0082,-0.008,-0.0173,-0.0183,-0.0193,-0.0211,-0.0222,-0.0081,-0.008,-0.008,-0.0079,0,0.0043,0.0009,-0.0018,-0.0032,-0.0048,-0.0089,-0.0074,-0.0104,-0.0091,-0.0084,-0.0146,-0.015,-0.0178,-0.0193,-0.0174,-0.025,-0.0222,-0.018,-0.0129,-0.0214,-0.0229,-0.0239,-0.0089,-0.0087,-0.0085,-0.0084,0,0,-0.0064,-0.0078,-0.0089,-0.0112,-0.0128,-0.0148,-0.0211,-0.0245,-0.0272,-0.029,-0.0336,-0.0385,-0.0348,-0.0361,-0.0338,-0.0358,-0.0424,-0.0304,-0.0302,-0.0316,-0.0463,-0.0453,-0.0462,-0.0388,-0.039,-0.0391,-0.0452,0,-0.0151,-0.0217,-0.0211,-0.0302,-0.0338,-0.0325,-0.0384,-0.0404,-0.0408,-0.0442,-0.0435,-0.0466,-0.0423,-0.0427,-0.0448,-0.0413,-0.0453,-0.0412,-0.0385,-0.0385,-0.0358,-0.0474,-0.0526,-0.0584,-0.0461,-0.0463,-0.0464,0,-0.0241,-0.0264,-0.035,-0.0409,-0.0428,-0.0475,-0.0531,-0.0574,-0.0598,-0.06,-0.0616,-0.0584,-0.0618,-0.0557,-0.0575,-0.0544,-0.0528,-0.0506,-0.0506,-0.0467,-0.0394,-0.0477,-0.0607,-0.0627,-0.0479,-0.0478,-0.0477,0,-0.0294,-0.0374,-0.0435,-0.0458,-0.051,-0.0555,-0.0587,-0.0619,-0.0639,-0.0679,-0.0682,-0.0709,-0.0701,-0.0693,-0.0635,-0.0608,-0.064,-0.0592,-0.0585,-0.0583,-0.0609,-0.0606,-0.0748,-0.0639,-0.0639,-0.0638,-0.0638,0,-0.0381,-0.0437,-0.0458,-0.0492,-0.0563,-0.0596,-0.066,-0.0693,-0.0722,-0.0741,-0.0746,-0.076,-0.073,-0.0722,-0.0684,-0.0666,-0.0681,-0.0633,-0.0611,-0.0648,-0.0648,-0.0647,-0.0637,-0.0641,-0.064,-0.064,-0.0639,0,-0.043,-0.0448,-0.0508,-0.0564,-0.0579,-0.0622,-0.0665,-0.0696,-0.0737,-0.0759,-0.0767,-0.0795,-0.0796,-0.0766,-0.0752,-0.0724,-0.0723,-0.0701,-0.0749,-0.0732,-0.074,-0.0733,-0.0796,-0.0806,-0.0726,-0.0726,-0.0726,0,-0.046,-0.0495,-0.053,-0.0539,-0.0562,-0.0611,-0.063,-0.0682,-0.0698,-0.0769,-0.0774,-0.0807,-0.0815,-0.0813,-0.0799,-0.078,-0.0749,-0.0802,-0.0772,-0.0788,-0.0764,-0.0718,-0.0718,-0.0857,-0.0858,-0.0859,-0.086,0,-0.0519,-0.0519,-0.0548,-0.0542,-0.0558,-0.0581,-0.0617,-0.0628,-0.0684,-0.0719,-0.0773,-0.0801,-0.0842,-0.0875,-0.0864,-0.0839,-0.0828,-0.0822,-0.0839,-0.09,-0.0861,-0.0843,-0.0762,-0.087,-0.0869,-0.0868,-0.0868,-0.0867,-0.055,-0.055,-0.0552,-0.0552,-0.0559,-0.0555,-0.057,-0.0595,-0.0627,-0.0675,-0.0735,-0.0793,-0.0911,-0.0925,-0.0908,-0.0957,-0.0891,-0.0943,-0.0941,-0.0897,-0.0898,-0.084,-0.0907,-0.0907,-0.0906,-0.0906,-0.0905,0,-0.0576,-0.0558,-0.056,-0.0546,-0.0544,-0.0547,-0.0561,-0.0566,-0.0592,-0.0633,-0.0683,-0.0847,-0.095,-0.1031,-0.1142,-0.1105,-0.1065,-0.1066,-0.1046,-0.1045,-0.1018,-0.1014,-0.1107,-0.1107,-0.1107,-0.1107,-0.1107,-0.1107,-0.0591,-0.0573,-0.0551,-0.0531,-0.0525,-0.0535,-0.054,-0.0542,-0.0568,-0.0629,-0.072,-0.0779,-0.1016,-0.1213,-0.1273,-0.1232,-0.1189,-0.1146,-0.111,-0.1127,-0.1116,-0.1105,-0.1103,-0.1213,-0.1213,-0.115,-0.1149,-0.1149]},{"header":{"parameterUnit":"m.s-1","parameterCategory":2,"la1":30.2991,"la2":30.254,"lo1":-89.0895,"lo2":-89.0444,"dy":0.0017,"dx":0.0017,"nx":28,"ny":28,"refTime":"2023-05-01T21:00:00:Z","depth":"0","parameterNumber":3,"parameterNumberName":"V-component_of_CURRENTS"},"data":[0,0,0,0,0,0,0,0,0,0,0,0,0,0,0,0,0,0,0,0,0,0,0,0,0,0,0,0,0,0,0,0,0,0,0,0,0,0,0,0,0,0,0,0,0,0,0,0,0,0,0,0,0,0,0,0,0,0,-0.233,-0.233,0,-0.2341,-0.234,-0.234,-0.2321,-0.2321,-0.2321,-0.2321,-0.2381,-0.2383,-0.2384,0,0,0,0,0,0,0,0,0,0,0,0,0,-0.2165,-0.2169,-0.233,-0.233,-0.2331,-0.2341,-0.234,-0.234,-0.2321,-0.2321,-0.2321,-0.232,-0.238,-0.2382,-0.2385,0,0,0,0,0,0,0,0,0,0,0,0,0,-0.2208,-0.217,-0.233,-0.2326,-0.2326,-0.2341,-0.234,-0.234,-0.2321,-0.2321,-0.2321,-0.232,-0.238,-0.2382,-0.2385,-0.2407,0,0,-0.2393,-0.2394,0,0,0,0,0,0,0,0,-0.2206,-0.2214,-0.2326,-0.2327,-0.2327,-0.2333,-0.2305,-0.2367,-0.2321,-0.2318,-0.2321,-0.232,-0.2373,-0.2376,-0.2371,-0.241,-0.2413,-0.2393,-0.2395,-0.2396,-0.2397,0,0,0,0,0,0,0,-0.2203,-0.2212,-0.2329,-0.2327,-0.2327,-0.2281,-0.2287,-0.2315,-0.2344,-0.2318,-0.2318,-0.2327,-0.2373,-0.2369,-0.2373,-0.2414,-0.2393,-0.2396,-0.2397,-0.2398,-0.2458,-0.2458,0,0,0,0,0,0,-0.2219,-0.2211,-0.2329,-0.233,-0.227,-0.2285,-0.2292,-0.2328,-0.2343,-0.2346,-0.2327,-0.2326,-0.2364,-0.237,-0.2375,-0.2379,-0.2396,-0.2399,-0.24,-0.2458,-0.2458,-0.2458,0,0,0,0,0,0,-0.2216,-0.2231,-0.2329,-0.2272,-0.2282,-0.229,-0.2329,-0.2328,-0.2326,-0.235,-0.2353,-0.2327,-0.2364,-0.2371,-0.24,-0.2383,-0.24,-0.2402,-0.2458,-0.2458,-0.2458,-0.2403,0,0,0,0,0,0,-0.2212,-0.223,-0.2251,-0.2275,-0.2286,-0.2337,-0.233,-0.2329,-0.2334,-0.2332,-0.2351,-0.2356,-0.2365,-0.2396,-0.2402,-0.2387,-0.2404,-0.2459,-0.2458,-0.2458,-0.2405,-0.2402,-0.2398,0,0,0,0,0,-0.2206,-0.2245,-0.2253,-0.2267,-0.232,-0.2338,-0.2338,-0.2337,-0.2334,-0.2333,-0.2347,-0.2355,-0.24,-0.2398,-0.2406,-0.239,-0.2459,-0.2458,-0.2458,-0.2407,-0.2402,-0.2398,0,0,0,0,0,0,-0.2184,-0.2248,-0.2257,-0.2314,-0.2323,-0.2336,-0.2339,-0.234,-0.2348,-0.2345,-0.2364,-0.2371,-0.2385,-0.2405,-0.2402,-0.2409,-0.2427,-0.2429,-0.2385,-0.2381,-0.2378,-0.2356,-0.2407,0,0,0,0,0,-0.2192,-0.2244,-0.2274,-0.2318,-0.2321,-0.2328,-0.2333,-0.2332,-0.2347,-0.2348,-0.2363,-0.2378,-0.2391,-0.24,-0.2417,-0.2431,-0.2401,-0.2425,-0.2421,-0.2418,-0.2406,-0.2362,-0.2352,-0.2458,-0.2458,-0.2458,0,0,-0.2196,-0.224,-0.2267,-0.2316,-0.2321,-0.2313,-0.2329,-0.2338,-0.2326,-0.2358,-0.2352,-0.2372,-0.2394,-0.2398,-0.2405,-0.2412,-0.2365,-0.2418,-0.2415,-0.2405,-0.2361,-0.235,-0.234,-0.2458,-0.2458,-0.2458,0,0,-0.2214,-0.2265,-0.2293,-0.2294,-0.231,-0.2311,-0.2315,-0.2324,-0.2322,-0.2331,-0.234,-0.2352,-0.238,-0.2379,-0.2386,-0.238,-0.2351,-0.2386,-0.2347,-0.2304,-0.2294,-0.2285,-0.2195,-0.2178,-0.2381,-0.2381,-0.2381,0,-0.2204,-0.2244,-0.2297,-0.2298,-0.2276,-0.2308,-0.2278,-0.2294,-0.231,-0.23,-0.2324,-0.2334,-0.2365,-0.2346,-0.2346,-0.2369,-0.2322,-0.2358,-0.2296,-0.2287,-0.2278,-0.2188,-0.2171,-0.2378,-0.2379,-0.2379,-0.2379,0,-0.2225,-0.223,-0.224,-0.225,-0.2242,-0.2226,-0.2237,-0.2241,-0.2248,-0.2251,-0.2246,-0.2284,-0.2279,-0.2298,-0.2325,-0.2281,-0.2256,-0.2295,-0.2298,-0.2264,-0.2171,-0.2154,-0.2375,-0.2375,-0.2376,-0.2377,0,0,-0.224,-0.2247,-0.2242,-0.219,-0.2196,-0.2172,-0.2176,-0.2157,-0.2122,-0.217,-0.2118,-0.2175,-0.2188,-0.2197,-0.2225,-0.2209,-0.2116,-0.2226,-0.2225,-0.2119,-0.1968,-0.1959,-0.1939,-0.2137,-0.2135,-0.2133,-0.1912,0,-0.221,-0.2175,-0.2196,-0.2112,-0.2062,-0.2071,-0.2049,-0.2044,-0.2054,-0.2026,-0.208,-0.2048,-0.2151,-0.2121,-0.2133,-0.2117,-0.2074,-0.2169,-0.2032,-0.2027,-0.2011,-0.1921,-0.1953,-0.1761,-0.1895,-0.1892,-0.189,0,-0.2196,-0.2159,-0.2075,-0.1977,-0.1955,-0.1913,-0.1836,-0.1823,-0.1833,-0.1836,-0.1855,-0.1891,-0.1885,-0.197,-0.1928,-0.1978,-0.1965,-0.1964,-0.1956,-0.1957,-0.1987,-0.1828,-0.1725,-0.1659,-0.1863,-0.1865,-0.1867,0,-0.2116,-0.2057,-0.1967,-0.1934,-0.1858,-0.1803,-0.1764,-0.1752,-0.1708,-0.1695,-0.1653,-0.1691,-0.1655,-0.1687,-0.1731,-0.1801,-0.1658,-0.175,-0.1719,-0.1715,-0.1722,-0.1724,-0.153,-0.169,-0.1691,-0.1691,-0.1692,0,-0.2043,-0.1951,-0.1909,-0.1837,-0.1695,-0.1688,-0.1558,-0.1542,-0.1509,-0.1458,-0.1529,-0.1496,-0.1582,-0.1553,-0.1624,-0.1594,-0.1563,-0.1671,-0.1655,-0.1701,-0.1704,-0.1636,-0.1624,-0.1683,-0.1685,-0.1687,-0.1688,0,-0.1904,-0.1915,-0.1765,-0.1671,-0.164,-0.1513,-0.1409,-0.1343,-0.1321,-0.1254,-0.1236,-0.1274,-0.127,-0.1329,-0.1331,-0.1407,-0.1378,-0.1399,-0.1425,-0.1419,-0.1395,-0.1381,-0.1175,-0.1195,-0.133,-0.1328,-0.1327,0,-0.1802,-0.1727,-0.1606,-0.1535,-0.1468,-0.1331,-0.1268,-0.1236,-0.1204,-0.1152,-0.1129,-0.1083,-0.1142,-0.1101,-0.1212,-0.1248,-0.1262,-0.1239,-0.142,-0.1349,-0.132,-0.1326,-0.1361,-0.1375,-0.1375,-0.1374,-0.1373,0,-0.1533,-0.1513,-0.1392,-0.1317,-0.1227,-0.114,-0.1071,-0.1031,-0.1042,-0.1016,-0.103,-0.1055,-0.1064,-0.1155,-0.1152,-0.1205,-0.1217,-0.1229,-0.1151,-0.1321,-0.1315,-0.1343,-0.1527,-0.1368,-0.1368,-0.1369,-0.1369,-0.1369,-0.128,-0.1181,-0.1119,-0.105,-0.0998,-0.1008,-0.0961,-0.0976,-0.0961,-0.1009,-0.102,-0.1102,-0.1137,-0.1214,-0.1199,-0.1147,-0.1203,-0.1174,-0.1145,-0.1143,-0.1217,-0.1364,-0.1213,-0.1213,-0.1212,-0.1212,-0.1212,0,-0.0988,-0.0974,-0.0884,-0.0856,-0.0861,-0.0887,-0.0887,-0.0913,-0.0977,-0.1056,-0.1123,-0.1244,-0.1232,-0.1214,-0.1149,-0.1075,-0.1128,-0.1003,-0.1021,-0.1059,-0.1167,-0.123,-0.1081,-0.1081,-0.1081,-0.1081,-0.1081,-0.1081,-0.082,-0.0729,-0.0783,-0.0781,-0.08,-0.083,-0.0862,-0.0919,-0.1004,-0.1149,-0.128,-0.1401,-0.1323,-0.1075,-0.0913,-0.0903,-0.0874,-0.0839,-0.0824,-0.0898,-0.0913,-0.0927,-0.0981,-0.0782,-0.0782,-0.0781,-0.0781,-0.078]}],[{"header":{"parameterUnit":"m.s-1","parameterCategory":2,"la1":30.2991,"la2":30.254,"lo1":-89.0895,"lo2":-89.0444,"dy":0.0017,"dx":0.0017,"nx":28,"ny":28,"refTime":"2023-05-01T21:00:00:Z","depth":"2","parameterNumber":2,"parameterNumberName":"U-component_of_CURRENTS"},"data":[0,0,0,0,0,0,0,0,0,0,0,0,0,0,0,0,0,0,0,0,0,0,0,0,0,0,0,0,0,0,0,0,0,0,0,0,0,0,0,0,0,0,0,0,0,0,0,0,0,0,0,0,0,0,0,0,0,0,-0.1122,-0.1122,0,-0.1152,-0.1153,-0.1154,-0.1131,-0.113,-0.1128,-0.1127,-0.1126,-0.1127,-0.1129,0,0,0,0,0,0,0,0,0,0,0,0,0,-0.1164,-0.1164,-0.1122,-0.1122,-0.1122,-0.1152,-0.1153,-0.1154,-0.1131,-0.113,-0.1128,-0.1126,-0.1125,-0.1127,-0.1129,0,0,0,0,0,0,0,0,0,0,0,0,0,-0.1171,-0.1163,-0.1122,-0.111,-0.1109,-0.1152,-0.1153,-0.1154,-0.1132,-0.113,-0.1127,-0.1125,-0.1125,-0.1127,-0.1129,-0.1188,0,0,-0.1135,-0.1136,0,0,0,0,0,0,0,0,-0.117,-0.117,-0.1112,-0.1111,-0.1109,-0.113,-0.1167,-0.1162,-0.1132,-0.1129,-0.1127,-0.1124,-0.1122,-0.1125,-0.1144,-0.1188,-0.1188,-0.1136,-0.1137,-0.1138,-0.1138,0,0,0,0,0,0,0,-0.117,-0.1169,-0.114,-0.1112,-0.111,-0.1143,-0.1141,-0.1167,-0.1142,-0.1129,-0.1126,-0.1121,-0.1122,-0.1142,-0.1144,-0.1187,-0.1135,-0.1137,-0.1139,-0.1139,-0.1167,-0.1167,0,0,0,0,0,0,-0.115,-0.1168,-0.1139,-0.114,-0.1128,-0.1143,-0.1141,-0.1131,-0.1143,-0.1141,-0.1123,-0.112,-0.114,-0.1141,-0.1143,-0.1118,-0.1138,-0.114,-0.1141,-0.1168,-0.1167,-0.1167,0,0,0,0,0,0,-0.1151,-0.1147,-0.1138,-0.1151,-0.1151,-0.1143,-0.1133,-0.1132,-0.1117,-0.1137,-0.1135,-0.1103,-0.1138,-0.114,-0.1129,-0.1121,-0.1141,-0.1142,-0.1169,-0.1168,-0.1167,-0.1128,0,0,0,0,0,0,-0.1152,-0.1148,-0.1137,-0.1149,-0.1149,-0.1148,-0.1134,-0.1134,-0.1117,-0.1112,-0.112,-0.112,-0.1136,-0.1126,-0.1132,-0.1124,-0.1144,-0.1169,-0.1168,-0.1167,-0.113,-0.1126,-0.1123,0,0,0,0,0,-0.1154,-0.1155,-0.1137,-0.1133,-0.1133,-0.1147,-0.1152,-0.1144,-0.1117,-0.112,-0.1107,-0.1118,-0.1124,-0.1128,-0.1134,-0.1127,-0.117,-0.1169,-0.1167,-0.1132,-0.1127,-0.1123,0,0,0,0,0,0,-0.1181,-0.1153,-0.1133,-0.1127,-0.1124,-0.114,-0.1141,-0.1129,-0.1125,-0.1108,-0.1116,-0.1116,-0.1106,-0.1121,-0.1125,-0.1131,-0.1148,-0.1148,-0.1118,-0.1114,-0.1111,-0.112,-0.1146,0,0,0,0,0,-0.1177,-0.1166,-0.1147,-0.1147,-0.1133,-0.1129,-0.113,-0.1122,-0.1118,-0.1113,-0.1115,-0.1113,-0.1117,-0.1114,-0.1129,-0.1136,-0.1148,-0.1134,-0.113,-0.1127,-0.1138,-0.1123,-0.1118,-0.1163,-0.1163,-0.1163,0,0,-0.1195,-0.1174,-0.1172,-0.1151,-0.1144,-0.1143,-0.1125,-0.1119,-0.1122,-0.1116,-0.1114,-0.1104,-0.1115,-0.1118,-0.1115,-0.1122,-0.1122,-0.1125,-0.1123,-0.1136,-0.1121,-0.1117,-0.1113,-0.1162,-0.1162,-0.1163,0,0,-0.1231,-0.1192,-0.1191,-0.1181,-0.1154,-0.1148,-0.1133,-0.1125,-0.1116,-0.1115,-0.1102,-0.1081,-0.1099,-0.11,-0.1104,-0.1092,-0.1104,-0.1087,-0.1076,-0.106,-0.1057,-0.1054,-0.1071,-0.107,-0.1083,-0.1083,-0.1083,0,-0.1248,-0.1231,-0.12,-0.1194,-0.1182,-0.114,-0.1139,-0.1139,-0.1132,-0.1122,-0.1106,-0.1098,-0.1098,-0.1093,-0.1079,-0.1085,-0.1083,-0.109,-0.1055,-0.1052,-0.105,-0.1069,-0.1068,-0.1081,-0.1081,-0.1082,-0.1082,0,-0.1276,-0.1259,-0.1256,-0.1222,-0.1218,-0.1205,-0.1183,-0.1171,-0.114,-0.1132,-0.1108,-0.1101,-0.109,-0.1081,-0.1077,-0.1054,-0.1061,-0.1052,-0.1065,-0.1043,-0.1064,-0.1064,-0.1078,-0.1079,-0.108,-0.108,0,0,-0.1303,-0.1278,-0.1271,-0.1249,-0.1218,-0.1209,-0.1212,-0.119,-0.1166,-0.1152,-0.1132,-0.1118,-0.1083,-0.1085,-0.1064,-0.1046,-0.1021,-0.1032,-0.1032,-0.1049,-0.1,-0.11,-0.1109,-0.0989,-0.0988,-0.0988,-0.1025,0,-0.1316,-0.1304,-0.1299,-0.1284,-0.1256,-0.1234,-0.1237,-0.1217,-0.1189,-0.1163,-0.1135,-0.1109,-0.1093,-0.1064,-0.1044,-0.1024,-0.1016,-0.1014,-0.1021,-0.1022,-0.1112,-0.1111,-0.0884,-0.0906,-0.1025,-0.1025,-0.1025,0,-0.1308,-0.13,-0.1285,-0.1267,-0.1254,-0.1248,-0.1206,-0.1209,-0.1177,-0.1159,-0.1126,-0.1101,-0.1073,-0.1054,-0.103,-0.102,-0.101,-0.1002,-0.1002,-0.1113,-0.1122,-0.0946,-0.0901,-0.1025,-0.1025,-0.1025,-0.1025,0,-0.1266,-0.1274,-0.125,-0.1241,-0.1229,-0.1218,-0.1209,-0.1185,-0.1172,-0.1138,-0.1123,-0.109,-0.107,-0.1044,-0.1052,-0.1016,-0.1045,-0.0995,-0.1089,-0.1096,-0.0919,-0.0914,-0.0986,-0.0986,-0.0986,-0.0986,-0.0985,0,-0.1232,-0.121,-0.1221,-0.119,-0.1163,-0.1178,-0.1136,-0.1131,-0.1122,-0.1119,-0.1097,-0.1125,-0.1059,-0.1079,-0.1063,-0.111,-0.1061,-0.1104,-0.1113,-0.0904,-0.0897,-0.1011,-0.1014,-0.0987,-0.0987,-0.0986,-0.0986,0,-0.1151,-0.1165,-0.1124,-0.1122,-0.1119,-0.1083,-0.108,-0.1065,-0.1074,-0.1075,-0.1069,-0.1121,-0.1167,-0.115,-0.1142,-0.1147,-0.1167,-0.12,-0.0994,-0.0981,-0.1216,-0.1216,-0.1267,-0.1271,-0.1274,-0.1277,-0.1279,0,-0.1108,-0.1069,-0.1042,-0.1026,-0.1012,-0.0986,-0.0976,-0.1004,-0.1022,-0.1115,-0.1137,-0.1195,-0.1264,-0.1325,-0.1314,-0.1315,-0.1297,-0.1131,-0.1034,-0.1242,-0.1244,-0.1239,-0.1235,-0.0764,-0.0762,-0.076,-0.0759,0,-0.1009,-0.0981,-0.0954,-0.0924,-0.0904,-0.0897,-0.0912,-0.0929,-0.1009,-0.1066,-0.122,-0.129,-0.1363,-0.1323,-0.1341,-0.1281,-0.1105,-0.1106,-0.1326,-0.0777,-0.0784,-0.0782,-0.079,-0.0743,-0.0745,-0.0746,-0.0747,-0.0747,-0.0928,-0.0895,-0.0866,-0.084,-0.0826,-0.0848,-0.0845,-0.092,-0.0993,-0.1123,-0.1253,-0.1415,-0.1322,-0.1384,-0.123,-0.1084,-0.118,-0.1,-0.0996,-0.0996,-0.098,-0.0997,-0.0994,-0.0997,-0.0999,-0.1001,-0.1003,0,-0.0892,-0.0861,-0.0809,-0.0805,-0.08,-0.0795,-0.0843,-0.0885,-0.1003,-0.1164,-0.1296,-0.1283,-0.1254,-0.1204,-0.0985,-0.0874,-0.0727,-0.0741,-0.0521,-0.0537,-0.0551,-0.0504,-0.0396,-0.0395,-0.0395,-0.0394,0,0,-0.0874,-0.0848,-0.0836,-0.0817,-0.0798,-0.0808,-0.0832,-0.0902,-0.1026,-0.1121,-0.1287,-0.1483,-0.1421,-0.1138,-0.0818,-0.0622,-0.0593,-0.0528,-0.1004,-0.0777,-0.0793,-0.0671,-0.0616,0,0,0,0,0]},{"header":{"parameterUnit":"m.s-1","parameterCategory":2,"la1":30.2991,"la2":30.254,"lo1":-89.0895,"lo2":-89.0444,"dy":0.0017,"dx":0.0017,"nx":28,"ny":28,"refTime":"2023-05-01T21:00:00:Z","depth":"2","parameterNumber":3,"parameterNumberName":"V-component_of_CURRENTS"},"data":[0,0,0,0,0,0,0,0,0,0,0,0,0,0,0,0,0,0,0,0,0,0,0,0,0,0,0,0,0,0,0,0,0,0,0,0,0,0,0,0,0,0,0,0,0,0,0,0,0,0,0,0,0,0,0,0,0,0,0.0435,0.0436,0,0.0572,0.0574,0.0576,0.0622,0.0621,0.062,0.0619,0.0606,0.0607,0.0608,0,0,0,0,0,0,0,0,0,0,0,0,0,0.034,0.0341,0.0435,0.0436,0.0437,0.0572,0.0574,0.0577,0.0622,0.0621,0.0619,0.0618,0.0606,0.0607,0.0608,0,0,0,0,0,0,0,0,0,0,0,0,0,0.0426,0.0342,0.0435,0.047,0.0474,0.0571,0.0574,0.0577,0.0623,0.0621,0.0619,0.0617,0.0606,0.0607,0.0608,0.0654,0,0,0.0612,0.0613,0,0,0,0,0,0,0,0,0.0421,0.043,0.0464,0.0468,0.0473,0.0572,0.0536,0.0593,0.0623,0.0574,0.0618,0.0616,0.0577,0.0581,0.0624,0.0653,0.0653,0.0612,0.0613,0.0614,0.0614,0,0,0,0,0,0,0,0.0415,0.0425,0.0497,0.0465,0.047,0.0523,0.0533,0.0549,0.0588,0.0578,0.058,0.0584,0.0579,0.0623,0.0623,0.0652,0.0612,0.0613,0.0614,0.0615,0.0641,0.0641,0,0,0,0,0,0,0.0379,0.0419,0.0492,0.05,0.0433,0.0525,0.0536,0.0548,0.0591,0.0595,0.0586,0.0586,0.0621,0.0622,0.0622,0.0549,0.0614,0.0615,0.0615,0.0641,0.0641,0.0641,0,0,0,0,0,0,0.0376,0.0384,0.0486,0.0456,0.0472,0.0527,0.054,0.0551,0.0554,0.0597,0.0599,0.0571,0.062,0.0621,0.0606,0.0553,0.0615,0.0616,0.0641,0.0641,0.0641,0.0483,0,0,0,0,0,0,0.0373,0.0383,0.0371,0.0454,0.0472,0.0516,0.0542,0.0555,0.0558,0.0559,0.0585,0.0585,0.0618,0.0604,0.0607,0.0555,0.0617,0.0641,0.0641,0.0641,0.0488,0.0477,0.0468,0,0,0,0,0,0.037,0.0368,0.037,0.0378,0.0457,0.0514,0.0529,0.0568,0.0558,0.0562,0.0573,0.0582,0.0606,0.0605,0.0609,0.0556,0.0641,0.0641,0.0641,0.0493,0.048,0.0468,0,0,0,0,0,0,0.0324,0.0375,0.0378,0.0391,0.0429,0.0518,0.0518,0.0542,0.0563,0.0537,0.0578,0.058,0.0556,0.0589,0.0587,0.0572,0.0627,0.0627,0.0513,0.0501,0.0491,0.0476,0.0619,0,0,0,0,0,0.0304,0.0313,0.0368,0.0374,0.038,0.0438,0.0458,0.0479,0.0512,0.052,0.0537,0.0554,0.0572,0.0556,0.0591,0.0567,0.0579,0.0544,0.0533,0.0524,0.052,0.0496,0.0481,0.064,0.064,0.064,0,0,0.0285,0.0314,0.0317,0.0362,0.039,0.0402,0.0446,0.0456,0.0454,0.051,0.0492,0.0519,0.0565,0.0551,0.054,0.0555,0.0482,0.0524,0.0515,0.0516,0.0494,0.0478,0.0463,0.064,0.064,0.064,0,0,0.026,0.0271,0.0266,0.0293,0.0315,0.035,0.0336,0.0389,0.039,0.0388,0.0427,0.0416,0.0445,0.0463,0.0477,0.0433,0.0442,0.0441,0.0351,0.0326,0.0311,0.0299,0.0263,0.0249,0.0418,0.0418,0.0418,0,0.0225,0.023,0.0273,0.0277,0.0278,0.0312,0.0297,0.0322,0.0361,0.0347,0.0352,0.0381,0.0405,0.0386,0.0374,0.0402,0.0391,0.0379,0.0306,0.0295,0.0284,0.0252,0.0238,0.041,0.0411,0.0412,0.0413,0,0.0206,0.0198,0.0192,0.0201,0.0217,0.0204,0.0233,0.0223,0.0212,0.0235,0.0204,0.0243,0.0258,0.0258,0.0297,0.024,0.0256,0.0301,0.032,0.0257,0.0229,0.0216,0.0399,0.0402,0.0404,0.0406,0,0,0.0139,0.0168,0.0156,0.0134,0.0161,0.0163,0.0146,0.0138,0.0099,0.0111,0.0067,0.0089,0.01,0.0121,0.0155,0.0122,0.0029,0.0164,0.0166,0.0098,-0.0049,0.0026,0.0021,0.0047,0.0045,0.0043,-0.0052,0,0.0087,0.0061,0.0101,0.0052,0.0026,0.0055,0.004,0.0038,0.0031,0.0002,0.0009,-0.0001,0.0051,0.0037,0.0011,0.0049,-0.0004,0.005,0.0051,0.0051,0.0099,0.001,0.0342,0.0292,-0.0064,-0.0065,-0.0067,0,0.0042,0.002,-0.0028,-0.0054,-0.0066,-0.0075,-0.0126,-0.013,-0.0138,-0.0144,-0.0158,-0.0127,-0.0152,-0.0103,-0.0125,-0.0097,-0.0092,-0.0079,-0.0082,0.0039,0.0105,0.0308,0.0284,-0.0086,-0.0084,-0.0083,-0.0082,0,-0.0049,-0.0077,-0.0133,-0.0136,-0.0145,-0.0174,-0.0186,-0.019,-0.0216,-0.0233,-0.0261,-0.0262,-0.0279,-0.0267,-0.0214,-0.0187,-0.0246,-0.0197,-0.0139,-0.0134,0.0181,0.0217,-0.0247,-0.0247,-0.0247,-0.0247,-0.0246,0,-0.0117,-0.0168,-0.0187,-0.0215,-0.0302,-0.0269,-0.0344,-0.0342,-0.0357,-0.0394,-0.0346,-0.0366,-0.0325,-0.0327,-0.0277,-0.0242,-0.0297,-0.0176,-0.0159,0.0135,0.0167,-0.0114,-0.0098,-0.025,-0.025,-0.0249,-0.0248,0,-0.0191,-0.0196,-0.027,-0.0317,-0.0335,-0.0398,-0.043,-0.0476,-0.0472,-0.0517,-0.0525,-0.0484,-0.0456,-0.0414,-0.0394,-0.0326,-0.0291,-0.0271,0.0063,0.0122,-0.0155,-0.0145,-0.0231,-0.0229,-0.0228,-0.0226,-0.0225,0,-0.0231,-0.0272,-0.0353,-0.0401,-0.0422,-0.0497,-0.0537,-0.0539,-0.0567,-0.0569,-0.0593,-0.0577,-0.0493,-0.0431,-0.0303,-0.0221,-0.0289,0.0094,0.0215,-0.0182,-0.0157,-0.0149,-0.0141,0.0558,0.0565,0.0571,0.0576,0,-0.0324,-0.0347,-0.0407,-0.0489,-0.0551,-0.0619,-0.0665,-0.0696,-0.0688,-0.0679,-0.0627,-0.0545,-0.0422,-0.007,0.0036,0.0083,0.012,0.0215,-0.0278,0.0497,0.0553,0.058,0.0564,0.063,0.0624,0.062,0.0617,0.0615,-0.0407,-0.0458,-0.0514,-0.0581,-0.0648,-0.0698,-0.0738,-0.075,-0.0747,-0.0689,-0.061,-0.0324,-0.0029,0.0322,0.0347,0.0389,0.0357,0.0546,0.0531,0.051,0.0613,0.0668,0.0784,0.078,0.0776,0.0773,0.077,0,-0.0483,-0.0519,-0.0592,-0.0657,-0.0697,-0.0727,-0.0788,-0.0779,-0.0739,-0.0639,-0.0513,0.0008,0.0478,0.0662,0.0936,0.0961,0.0866,0.0893,0.0983,0.0945,0.0907,0.1025,0.1307,0.1304,0.1301,0.1299,0,0,-0.0537,-0.0585,-0.0586,-0.0655,-0.07,-0.076,-0.0784,-0.0762,-0.0691,-0.0503,-0.0177,0.0137,0.0644,0.0905,0.1062,0.1242,0.0904,0.1106,0.075,0.0808,0.0758,0.0882,0.1046,0,0,0,0,0]}],[{"header":{"parameterUnit":"m.s-1","parameterCategory":2,"la1":30.2991,"la2":30.254,"lo1":-89.0895,"lo2":-89.0444,"dy":0.0017,"dx":0.0017,"nx":28,"ny":28,"refTime":"2023-05-01T21:00:00:Z","depth":"4","parameterNumber":2,"parameterNumberName":"U-component_of_CURRENTS"},"data":[0,0,0,0,0,0,0,0,0,0,0,0,0,0,0,0,0,0,0,0,0,0,0,0,0,0,0,0,0,0,0,0,0,0,0,0,0,0,0,0,0,0,0,0,0,0,0,0,0,0,0,0,0,0,0,0,0,0,-0.1,-0.1,0,-0.0977,-0.0976,-0.0975,-0.1018,-0.1021,-0.1023,-0.1025,-0.1181,-0.1183,-0.1185,0,0,0,0,0,0,0,0,0,0,0,0,0,-0.0878,-0.088,-0.1,-0.1001,-0.1001,-0.0977,-0.0976,-0.0975,-0.1018,-0.1021,-0.1023,-0.1026,-0.118,-0.1182,-0.1185,0,0,0,0,0,0,0,0,0,0,0,0,0,-0.0893,-0.0881,-0.1,-0.1026,-0.1029,-0.0978,-0.0976,-0.0975,-0.1017,-0.1021,-0.1024,-0.1027,-0.1179,-0.1182,-0.1185,-0.1137,0,0,-0.1195,-0.1196,0,0,0,0,0,0,0,0,-0.0892,-0.0896,-0.1022,-0.1024,-0.1027,-0.1012,-0.0991,-0.1041,-0.1017,-0.1012,-0.1025,-0.1029,-0.1144,-0.115,-0.1123,-0.1144,-0.1151,-0.1195,-0.1197,-0.1198,-0.1199,0,0,0,0,0,0,0,-0.0891,-0.0896,-0.0982,-0.1022,-0.1026,-0.097,-0.0977,-0.0998,-0.1056,-0.1013,-0.1018,-0.1029,-0.1146,-0.112,-0.1128,-0.1153,-0.1195,-0.1197,-0.1199,-0.1201,-0.1524,-0.153,0,0,0,0,0,0,-0.0919,-0.0896,-0.0983,-0.0982,-0.0977,-0.0971,-0.0978,-0.1006,-0.1052,-0.1063,-0.1026,-0.1031,-0.1113,-0.1124,-0.1134,-0.1357,-0.1198,-0.1201,-0.1203,-0.1517,-0.1525,-0.1533,0,0,0,0,0,0,-0.0917,-0.0928,-0.0984,-0.0944,-0.0949,-0.0972,-0.1002,-0.1004,-0.1018,-0.1062,-0.1075,-0.1044,-0.1116,-0.113,-0.1251,-0.1354,-0.1202,-0.1205,-0.1509,-0.152,-0.1529,-0.1628,0,0,0,0,0,0,-0.0913,-0.0927,-0.0946,-0.0947,-0.0953,-0.1005,-0.0999,-0.1002,-0.1021,-0.1028,-0.108,-0.1095,-0.112,-0.1247,-0.1254,-0.1356,-0.1207,-0.1501,-0.1514,-0.1526,-0.1616,-0.164,-0.166,0,0,0,0,0,-0.0909,-0.0927,-0.0947,-0.0957,-0.0983,-0.1007,-0.1005,-0.1023,-0.1019,-0.1042,-0.1115,-0.1096,-0.1335,-0.1253,-0.1261,-0.1365,-0.1495,-0.151,-0.1525,-0.1606,-0.1635,-0.166,0,0,0,0,0,0,-0.0877,-0.0934,-0.0956,-0.099,-0.1024,-0.102,-0.1024,-0.1032,-0.1088,-0.1131,-0.1143,-0.1165,-0.1303,-0.1335,-0.1244,-0.1511,-0.1426,-0.1443,-0.1486,-0.1513,-0.1535,-0.158,-0.121,0,0,0,0,0,-0.0881,-0.0926,-0.0962,-0.0998,-0.1007,-0.1014,-0.1019,-0.1068,-0.1116,-0.114,-0.1188,-0.1279,-0.1358,-0.1437,-0.1495,-0.1622,-0.1537,-0.1716,-0.1738,-0.1756,-0.1809,-0.1774,-0.1794,-0.1583,-0.1582,-0.1582,0,0,-0.0875,-0.0919,-0.094,-0.0996,-0.1005,-0.102,-0.1025,-0.1087,-0.114,-0.1154,-0.1251,-0.1325,-0.1401,-0.1555,-0.1627,-0.1609,-0.1753,-0.1776,-0.1789,-0.1834,-0.1792,-0.1811,-0.1828,-0.1593,-0.1591,-0.1589,0,0,-0.0884,-0.0927,-0.0957,-0.0993,-0.1066,-0.1066,-0.1091,-0.1145,-0.1212,-0.1335,-0.1365,-0.1506,-0.1627,-0.1712,-0.1763,-0.1943,-0.1837,-0.2008,-0.2191,-0.2155,-0.2169,-0.2181,-0.1978,-0.1971,-0.2061,-0.2061,-0.2061,0,-0.0878,-0.0919,-0.0968,-0.1008,-0.1031,-0.1081,-0.111,-0.1168,-0.1281,-0.1356,-0.1411,-0.1659,-0.1694,-0.1882,-0.1996,-0.1983,-0.1916,-0.2058,-0.2172,-0.2184,-0.2194,-0.1984,-0.1976,-0.2067,-0.2067,-0.2066,-0.2065,0,-0.0898,-0.0938,-0.0954,-0.1013,-0.1052,-0.1099,-0.1188,-0.1292,-0.1385,-0.1449,-0.1697,-0.1833,-0.2004,-0.2056,-0.2095,-0.2258,-0.2155,-0.2148,-0.2072,-0.2219,-0.1989,-0.1978,-0.2077,-0.2075,-0.2073,-0.2071,0,0,-0.0885,-0.0946,-0.0968,-0.1004,-0.1074,-0.1126,-0.1233,-0.1334,-0.1465,-0.1655,-0.1809,-0.2049,-0.2188,-0.2269,-0.2374,-0.2424,-0.2382,-0.239,-0.2385,-0.213,-0.2209,-0.2048,-0.2017,-0.2418,-0.2421,-0.2423,-0.1968,0,-0.088,-0.092,-0.0979,-0.1044,-0.1044,-0.1167,-0.1271,-0.1417,-0.1571,-0.1739,-0.1944,-0.2111,-0.2248,-0.2401,-0.2493,-0.2392,-0.2386,-0.2499,-0.2161,-0.2148,-0.1942,-0.2014,-0.243,-0.1959,-0.1956,-0.1954,-0.1953,0,-0.0873,-0.0905,-0.0956,-0.1076,-0.1106,-0.1217,-0.1438,-0.1563,-0.1781,-0.1932,-0.219,-0.2268,-0.2424,-0.2509,-0.2478,-0.2562,-0.2444,-0.2354,-0.2332,-0.2164,-0.1975,-0.1823,-0.1931,-0.1933,-0.1934,-0.1936,-0.1937,0,-0.0817,-0.0895,-0.0942,-0.0981,-0.1131,-0.1296,-0.1422,-0.1658,-0.1775,-0.2065,-0.2111,-0.2363,-0.2398,-0.2424,-0.229,-0.2384,-0.2129,-0.216,-0.188,-0.1855,-0.2077,-0.207,-0.2114,-0.2114,-0.2115,-0.2117,-0.2118,0,-0.0787,-0.0837,-0.0972,-0.1036,-0.1198,-0.1348,-0.161,-0.1792,-0.2004,-0.2003,-0.2254,-0.2241,-0.2392,-0.2247,-0.2225,-0.1984,-0.2041,-0.191,-0.1777,-0.2114,-0.2119,-0.2057,-0.2056,-0.2099,-0.2103,-0.2106,-0.2109,0,-0.0765,-0.0816,-0.0877,-0.108,-0.1191,-0.135,-0.1647,-0.1757,-0.2001,-0.1997,-0.2024,-0.2058,-0.1872,-0.1902,-0.1757,-0.1759,-0.1605,-0.1491,-0.1713,-0.1595,-0.1351,-0.1362,-0.1134,-0.1125,-0.1118,-0.1112,-0.1107,0,-0.0748,-0.078,-0.0928,-0.0981,-0.1129,-0.1384,-0.1496,-0.1778,-0.1759,-0.1774,-0.1605,-0.1511,-0.1492,-0.119,-0.1281,-0.1183,-0.1224,-0.111,-0.1453,-0.1382,-0.1273,-0.1296,-0.1316,-0.1096,-0.1094,-0.1092,-0.1091,0,-0.0703,-0.076,-0.0806,-0.0912,-0.1045,-0.1128,-0.1256,-0.1279,-0.139,-0.1501,-0.1246,-0.1212,-0.0966,-0.098,-0.0921,-0.0871,-0.1215,-0.1038,-0.1057,-0.1379,-0.1333,-0.1238,-0.1266,-0.1066,-0.107,-0.1072,-0.1073,0,-0.0663,-0.0644,-0.0683,-0.0805,-0.0862,-0.0834,-0.0994,-0.0921,-0.0991,-0.0989,-0.0817,-0.0802,-0.081,-0.0783,-0.0683,-0.0697,-0.0755,-0.0828,-0.0859,-0.0887,-0.1054,-0.0976,-0.0483,0,0,0,0,0,-0.0586,-0.0545,-0.0572,-0.0609,-0.0623,-0.0677,-0.0726,-0.0826,-0.0884,-0.0656,-0.0802,-0.0591,-0.0565,-0.0558,-0.0533,-0.0555,-0.0744,-0.0521,-0.0843,-0.093,-0.0958,-0.12,0,0,0,0,0,0,-0.0519,-0.0497,-0.0497,-0.0391,-0.0401,-0.037,-0.0425,-0.0464,-0.0386,-0.0476,-0.0474,-0.0523,-0.0512,-0.0552,-0.0499,-0.0501,-0.0692,-0.0536,-0.0534,-0.0914,-0.094,-0.0962,-0.1221,0,0,0,0,0]},{"header":{"parameterUnit":"m.s-1","parameterCategory":2,"la1":30.2991,"la2":30.254,"lo1":-89.0895,"lo2":-89.0444,"dy":0.0017,"dx":0.0017,"nx":28,"ny":28,"refTime":"2023-05-01T21:00:00:Z","depth":"4","parameterNumber":3,"parameterNumberName":"V-component_of_CURRENTS"},"data":[0,0,0,0,0,0,0,0,0,0,0,0,0,0,0,0,0,0,0,0,0,0,0,0,0,0,0,0,0,0,0,0,0,0,0,0,0,0,0,0,0,0,0,0,0,0,0,0,0,0,0,0,0,0,0,0,0,0,-0.0196,-0.0197,0,-0.0267,-0.0268,-0.0269,-0.0255,-0.0254,-0.0252,-0.0251,-0.025,-0.0251,-0.0253,0,0,0,0,0,0,0,0,0,0,0,0,0,-0.012,-0.0121,-0.0196,-0.0197,-0.0197,-0.0266,-0.0268,-0.0269,-0.0256,-0.0254,-0.0252,-0.025,-0.025,-0.0251,-0.0253,0,0,0,0,0,0,0,0,0,0,0,0,0,-0.017,-0.0121,-0.0196,-0.0197,-0.0198,-0.0266,-0.0268,-0.0269,-0.0256,-0.0254,-0.0251,-0.0249,-0.0249,-0.0251,-0.0253,-0.0312,0,0,-0.026,-0.026,0,0,0,0,0,0,0,0,-0.0167,-0.0173,-0.0196,-0.0197,-0.0198,-0.0247,-0.024,-0.0279,-0.0257,-0.0237,-0.0251,-0.0248,-0.0242,-0.0245,-0.0268,-0.0312,-0.0312,-0.026,-0.0261,-0.0262,-0.0262,0,0,0,0,0,0,0,-0.0164,-0.0171,-0.0227,-0.0197,-0.0198,-0.0218,-0.0222,-0.0248,-0.0252,-0.0238,-0.0237,-0.0241,-0.0242,-0.0266,-0.0268,-0.0312,-0.026,-0.0262,-0.0263,-0.0264,-0.0299,-0.0299,0,0,0,0,0,0,-0.0149,-0.0167,-0.0225,-0.0229,-0.0173,-0.022,-0.0225,-0.0236,-0.0254,-0.0254,-0.0243,-0.024,-0.0264,-0.0265,-0.0268,-0.0273,-0.0262,-0.0264,-0.0265,-0.03,-0.0299,-0.0299,0,0,0,0,0,0,-0.0147,-0.0154,-0.0222,-0.0197,-0.0206,-0.0223,-0.0236,-0.0239,-0.026,-0.0257,-0.0256,-0.026,-0.0262,-0.0265,-0.0274,-0.0274,-0.0265,-0.0267,-0.03,-0.03,-0.0299,-0.0324,0,0,0,0,0,0,-0.0145,-0.0153,-0.0164,-0.0196,-0.0207,-0.0267,-0.0238,-0.0242,-0.0265,-0.0262,-0.0272,-0.027,-0.0261,-0.0271,-0.0276,-0.0277,-0.0268,-0.03,-0.03,-0.0299,-0.0324,-0.0324,-0.0325,0,0,0,0,0,-0.0142,-0.0167,-0.0164,-0.0171,-0.0219,-0.0269,-0.0278,-0.0283,-0.0268,-0.0291,-0.0276,-0.0269,-0.0269,-0.0273,-0.0279,-0.0281,-0.0301,-0.03,-0.0299,-0.0323,-0.0324,-0.0325,0,0,0,0,0,0,-0.014,-0.0169,-0.0166,-0.0198,-0.023,-0.0265,-0.029,-0.0293,-0.0308,-0.0292,-0.0284,-0.0282,-0.0307,-0.0283,-0.0287,-0.0285,-0.0278,-0.0278,-0.0294,-0.0295,-0.0296,-0.0204,-0.027,0,0,0,0,0,-0.0145,-0.0166,-0.02,-0.0223,-0.0245,-0.027,-0.0292,-0.0293,-0.0306,-0.0311,-0.0319,-0.0307,-0.0314,-0.0293,-0.032,-0.0312,-0.027,-0.0309,-0.0309,-0.031,-0.0237,-0.0118,-0.0099,-0.0297,-0.0297,-0.0297,0,0,-0.0156,-0.0166,-0.0183,-0.0223,-0.025,-0.0298,-0.0279,-0.0312,-0.0338,-0.0309,-0.0349,-0.0346,-0.0326,-0.0331,-0.0332,-0.0298,-0.0269,-0.0309,-0.0311,-0.0234,-0.0115,-0.0095,-0.0077,-0.0296,-0.0296,-0.0297,0,0,-0.0179,-0.0195,-0.0225,-0.0259,-0.0291,-0.0315,-0.0327,-0.0369,-0.0374,-0.0405,-0.0388,-0.0377,-0.0392,-0.0366,-0.0353,-0.0372,-0.0313,-0.0362,-0.0248,-0.0137,-0.0118,-0.01,-0.0177,-0.0166,-0.0316,-0.0316,-0.0316,0,-0.0184,-0.0217,-0.0244,-0.0282,-0.0312,-0.0327,-0.0374,-0.0398,-0.0431,-0.0436,-0.0415,-0.0393,-0.0413,-0.036,-0.033,-0.0378,-0.0312,-0.0256,-0.0133,-0.0114,-0.0095,-0.0176,-0.0163,-0.0317,-0.0317,-0.0317,-0.0317,0,-0.0226,-0.0264,-0.0288,-0.034,-0.0388,-0.0422,-0.0464,-0.0499,-0.05,-0.0507,-0.0479,-0.0442,-0.0365,-0.0406,-0.0353,-0.0222,-0.0234,-0.019,-0.0125,-0.0076,-0.0169,-0.0155,-0.0319,-0.0318,-0.0318,-0.0318,0,0,-0.0207,-0.0296,-0.0305,-0.0346,-0.0411,-0.046,-0.0514,-0.0563,-0.0572,-0.0549,-0.0502,-0.0474,-0.0349,-0.0312,-0.0238,-0.0122,-0.0024,-0.0024,-0.0018,-0.0094,0.0162,0.0199,0.0216,0.0122,0.0128,0.0133,-0.0014,0,-0.0223,-0.0293,-0.0341,-0.0435,-0.0487,-0.0536,-0.0595,-0.064,-0.0629,-0.0597,-0.0496,-0.0411,-0.0335,-0.0208,-0.0079,-0.0019,0.0048,0.0007,0.0125,0.0124,0.0164,0.0249,0.0152,-0.0003,0.0001,0.0003,0.0005,0,-0.0249,-0.0288,-0.0373,-0.0483,-0.0514,-0.058,-0.065,-0.0678,-0.0652,-0.0591,-0.042,-0.0312,-0.0109,-0.003,0.0158,0.0179,0.0219,0.0223,0.0219,0.0315,0.02,-0.0022,0.0032,0.0029,0.0028,0.0026,0.0024,0,-0.0221,-0.0323,-0.0385,-0.0423,-0.0548,-0.0603,-0.0647,-0.0687,-0.0681,-0.0489,-0.0405,-0.0176,-0.0008,0.0157,0.0248,0.028,0.0384,0.0375,0.0376,0.0366,0.0378,0.0363,0.0505,0.0505,0.0505,0.0506,0.0506,0,-0.0221,-0.028,-0.0382,-0.0423,-0.053,-0.0588,-0.0646,-0.0646,-0.0568,-0.0536,-0.0302,-0.018,0.0102,0.0193,0.0268,0.0382,0.0407,0.0436,0.0407,0.0338,0.0323,0.0376,0.0363,0.05,0.0501,0.0502,0.0503,0,-0.0216,-0.0264,-0.0362,-0.048,-0.0534,-0.0597,-0.0664,-0.0675,-0.0555,-0.0464,-0.0344,-0.0137,0.0037,0.015,0.0309,0.0383,0.0456,0.0454,0.0256,0.0206,0.0318,0.0305,0.0469,0.0471,0.0472,0.0473,0.0474,0,-0.0224,-0.0266,-0.0412,-0.049,-0.0558,-0.0638,-0.0707,-0.0654,-0.0605,-0.0478,-0.0408,-0.0215,-0.0073,0.0115,0.0264,0.0375,0.0405,0.0409,0.0526,0.0398,0.035,0.0334,0.0319,0.0477,0.0477,0.0478,0.0478,0,-0.0247,-0.0296,-0.0371,-0.0509,-0.0611,-0.0695,-0.073,-0.0691,-0.0599,-0.0529,-0.0374,-0.0211,-0.0077,0.012,0.0233,0.0301,0.0434,0.0425,0.0423,0.0534,0.0409,0.0356,0.034,0.0483,0.0483,0.0482,0.0482,0,-0.0273,-0.0328,-0.0411,-0.0535,-0.0656,-0.0701,-0.0727,-0.0667,-0.0606,-0.0437,-0.0439,-0.0262,-0.0156,0.0066,0.0136,0.0285,0.0331,0.0393,0.0394,0.0389,0.0473,0.0309,0.038,0,0,0,0,0,-0.0301,-0.0343,-0.0443,-0.0551,-0.0649,-0.0698,-0.0736,-0.0716,-0.0655,-0.0537,-0.0451,-0.0321,-0.0089,-0.0009,0.015,0.0145,0.033,0.0335,0.0395,0.0513,0.0506,0.0635,0,0,0,0,0,0,-0.0333,-0.0397,-0.0419,-0.0506,-0.0578,-0.0648,-0.0671,-0.0635,-0.0527,-0.0471,-0.0352,-0.027,-0.0061,-0.0174,0.0157,0.0196,0.0262,0.0438,0.0442,0.0516,0.051,0.0506,0.0635,0,0,0,0,0]}]]